Flag for U.S.A. Weather past 2 weeks in Portland, Maine, U.S.A.

Now
70 °F

Partly cloudy.


Feels Like: 65 °F
Forecast: 64 / 72 °F
Wind: No wind

Location: Portland - Portland International Jetport

Current Time: Jul 24, 2014 at 3:04:12 AM

Latest Report: Jul 24, 2014 at 1:51 AM


Visibility: 8 mi

Pressure: 29.74 "Hg

Humidity: 93%

Dew point: 68 °F

Location of PortlandLocation

Historic Weather in Portland — Graph

°F

Portland temperature yesterday

Maximum temperature yesterday: 86 °F (at 1:51 PM)
Minimum temperature yesterday: 70 °F (at 10:51 PM)
Average temperature yesterday: 78 °F

Past Weeks' High & Low Weather Summary

 TemperatureHumidityPressure
High86 °F (Jul 23, 1:51 PM)100% (Jul 16, 12:49 AM)30.28 "Hg (Jul 16, 12:49 AM)
Low55 °F (Jul 21, 4:51 AM)41% (Jul 10, 5:51 PM)29.62 "Hg (Jul 9, 2:51 AM)
Average70 °F75%30.01 "Hg
* Reported Jul 9 1:51 AM — Jul 24 1:51 AM, Portland, Weather by CustomWeather, © 2014

Note: Actual official high and low records may vary slightly from our data, if they occured in-between our weather recording intervals... More about our weather records

Advertising

Portland weather history for previous 24 hours

 ConditionsComfort  
Time TempWeatherWind HumidityBarometerVisibility
1:51 AM
Jul 24
70 °FPartly cloudy.No wind93%29.74 "Hg8 mi
12:51 AM70 °FLight rain. Clear.3 mph97%29.75 "Hg7 mi
11:51 PM
Jul 23
70 °FClear.3 mph97%29.78 "Hg9 mi
10:51 PM70 °FLight rain. Fog.No wind97%29.77 "Hg6 mi
9:51 PM71 °FLight rain. Passing clouds.5 mph90%29.79 "Hg7 mi
8:51 PM71 °FThunderstorms. Fog.6 mph90%29.77 "Hg5 mi
7:51 PM80 °FPartly sunny.20 mph60%29.77 "Hg10 mi
6:51 PM77 °FPartly sunny.7 mph74%29.71 "Hg10 mi
5:51 PM81 °FScattered clouds.8 mph67%29.70 "Hg10 mi
4:51 PM83 °FPartly sunny.17 mph63%29.70 "Hg10 mi
3:51 PM85 °FPartly sunny.14 mph61%29.72 "Hg10 mi
2:51 PM85 °FBroken clouds.10 mph63%29.73 "Hg10 mi
1:51 PM86 °FBroken clouds.14 mph63%29.75 "Hg10 mi
12:51 PM84 °FPassing clouds.10 mph65%29.77 "Hg10 mi
11:51 AM85 °FPassing clouds.9 mph63%29.79 "Hg10 mi
10:51 AM85 °FPassing clouds.14 mph63%29.81 "Hg10 mi
9:51 AM83 °FSunny.10 mph65%29.83 "Hg10 mi
8:51 AM80 °FSunny.10 mph69%29.85 "Hg10 mi
7:51 AM76 °FSunny.10 mph77%29.86 "Hg10 mi
6:51 AM74 °FSunny.9 mph82%29.87 "Hg9 mi
5:51 AM71 °FClear.5 mph87%29.87 "Hg8 mi
4:51 AM72 °FClear.6 mph84%29.88 "Hg10 mi
3:51 AM73 °FClear.9 mph81%29.88 "Hg10 mi
Weather by CustomWeather, © 2014

See weather overviewHow to use our weather pages